Simultaneous Nadir Overpasses (SNOs) Predictions

Prediction of SNOs between GOES-15 and TERRA Satellite Orbit:

Table of predicted SNOs for the next 14.0 days since TLE Epoch: 2/14/2025
Index Date Time (GOES-15) GOES-15 Lat,Lon TERRA Lat,Lon Distance(km) Time Diff (sec)
1 02/16/2025 17:17:21 -0.00, 61.45 0.35, 63.03 180.07 80
2 02/17/2025 05:36:56 -0.00, 61.47 0.69, 58.27 363.80 80
3 02/19/2025 05:20:55 -0.00, 61.45 -0.27, 62.77 149.79 80
4 02/19/2025 17:40:38 0.01, 61.42 -0.74, 57.97 391.94 80
5 02/21/2025 17:19:16 0.00, 61.42 0.20, 62.48 120.55 80
6 02/22/2025 05:38:52 -0.01, 61.45 0.77, 57.71 424.79 80
7 02/24/2025 05:22:50 -0.01, 61.45 -0.20, 62.21 87.67 80
8 02/24/2025 17:42:31 0.02, 61.41 -0.84, 57.42 453.31 80
9 02/26/2025 17:21:09 0.01, 61.42 0.11, 61.93 58.56 80
10 02/27/2025 05:40:43 -0.02, 61.46 0.91, 57.17 487.90 80
